Weather History for KAAO - December, 2012

Change the Weather History Date:

Tuesday, December 25, 2012

  Actual Average (KICT) Record (KICT)
Temperature  
Mean Temperature 18 °F 32 °F  
Max Temperature 23 °F 42 °F 65 °F (1960)
Min Temperature 12 °F 23 °F -6 °F (1983)
Degree Days  
Heating Degree Days 48 33  
Month to date heating degree days 769  
Since 1 July heating degree days 1645  
Cooling Degree Days 0 0  
Month to date cooling degree days 0  
Year to date cooling degree days 1686  
Moisture  
Dew Point 10 °F    
Average Humidity 69    
Maximum Humidity 77    
Minimum Humidity 57    
Precipitation  
Precipitation 0.00 in 0.04 in 0.53 in (1940)
Month to date precipitation 1.02  
Year to date precipitation 32.46  
Snow  
Snow 0.00 in 0.20 in 4.00 in (1894)
Month to date snowfall 3.4  
Since 1 July snowfall 4.8  
Snow Depth -    
Sea Level Pressure  
Sea Level Pressure 30.20 in    
Wind  
Wind Speed 20 mph (NNE)    
Max Wind Speed 28 mph    
Max Gust Speed 36 mph    
Visibility 10 miles    
Events      
T = Trace of Precipitation, MM = Missing Value Source: NWS Daily Summary

Daily Weather History Graph

Daily Weather History Graph

Search for Another Location

Airport or City:

Trip Planner

Search our weather history database for the weather conditions in past years. The results will help you decide how hot, cold, wet, or windy it might be!

Date:

Astronomy

Dec. 25, 2012 Rise Set
Actual Time 7:42 AM CST 5:16 PM CST
Civil Twilight 7:13 AM CST 5:45 PM CST
Nautical Twilight 6:40 AM CST 6:18 PM CST
Astronomical Twilight 6:08 AM CST 6:50 PM CST
Moon 3:24 PM CST (12/25) 5:16 AM CST (12/25)
Length of Visible Light 10h 32m
Length of Day
9h 33m
Waxing Gibbous, 94% of the Moon is Illuminated
Dec 25
Waxing Gibbous
Dec 28
Full
Jan 4
Last Quarter
Jan 11
New
Jan 18
First Quarter

Hourly Weather History & Observations

Time (CST) Temp. Windchill Dew Point Humidity Pressure Visibility Wind Dir Wind Speed Gust Speed Precip Events Conditions
12:54 AM 19.9 °F 7.3 °F 12.9 °F 74% 30.10 in 10.0 mi NE 12.7 mph 21.9 mph N/A   Clear
1:54 AM 19.9 °F 6.7 °F 12.9 °F 74% 30.12 in 10.0 mi NE 13.8 mph 25.3 mph N/A   Mostly Cloudy
2:54 AM 19.9 °F 4.3 °F 12.9 °F 74% 30.10 in 10.0 mi NE 19.6 mph 26.5 mph N/A   Overcast
3:54 AM 19.9 °F 3.9 °F 12.9 °F 74% 30.12 in 10.0 mi NE 20.7 mph 28.8 mph N/A   Overcast
4:54 AM 19.0 °F 2.4 °F 12.9 °F 77% 30.12 in 10.0 mi NE 21.9 mph 31.1 mph N/A   Overcast
5:54 AM 19.0 °F 4.0 °F 12.9 °F 77% 30.14 in 10.0 mi NE 17.3 mph 24.2 mph N/A   Overcast
6:54 AM 19.0 °F 2.7 °F 12.9 °F 77% 30.15 in 10.0 mi NNE 20.7 mph 28.8 mph N/A   Overcast
7:54 AM 19.0 °F 1.6 °F 12.9 °F 77% 30.17 in 10.0 mi NNE 24.2 mph 29.9 mph N/A   Overcast
8:54 AM 19.0 °F 2.4 °F 12.9 °F 77% 30.19 in 10.0 mi NE 21.9 mph 28.8 mph N/A   Overcast
9:54 AM 19.0 °F 1.0 °F 12.0 °F 74% 30.19 in 10.0 mi NNE 26.5 mph 32.2 mph N/A   Overcast
10:39 AM 19.4 °F 2.5 °F 12.2 °F 74% 30.10 in 10.0 mi NNE 23.0 mph 34.5 mph N/A   Overcast
10:54 AM 19.9 °F 3.2 °F 12.0 °F 71% 30.18 in 10.0 mi NNE 23.0 mph 33.4 mph N/A   Overcast
11:43 AM 23.0 °F 8.7 °F 12.2 °F 63% 30.14 in 10.0 mi NNE 18.4 mph 29.9 mph N/A   Overcast
11:54 AM 21.9 °F 6.2 °F 12.0 °F 66% 30.20 in 10.0 mi North 21.9 mph 28.8 mph N/A   Overcast
12:54 PM 23.0 °F 7.2 °F 12.0 °F 63% 30.21 in 10.0 mi North 23.0 mph 31.1 mph N/A   Mostly Cloudy
1:54 PM 21.9 °F 4.5 °F 10.0 °F 60% 30.22 in 10.0 mi North 27.6 mph 35.7 mph N/A   Scattered Clouds
2:54 PM 21.0 °F 4.6 °F 9.0 °F 60% 30.24 in 10.0 mi North 23.0 mph 35.7 mph N/A   Partly Cloudy
3:54 PM 19.0 °F 1.3 °F 8.1 °F 62% 30.27 in 10.0 mi North 25.3 mph 34.5 mph N/A   Overcast
4:54 PM 18.0 °F -0.8 °F 6.1 °F 60% 30.28 in 10.0 mi North 27.6 mph 35.7 mph N/A   Overcast
5:54 PM 18.0 °F 0.9 °F 5.0 °F 57% 30.28 in 10.0 mi North 21.9 mph 32.2 mph N/A   Scattered Clouds
6:54 PM 18.0 °F 0.6 °F 6.1 °F 60% 30.28 in 10.0 mi North 23.0 mph 31.1 mph N/A   Overcast
7:54 PM 17.1 °F 0.1 °F 7.0 °F 65% 30.28 in 10.0 mi North 20.7 mph 28.8 mph N/A   Clear
8:54 PM 15.1 °F -3.3 °F 6.1 °F 68% 30.28 in 10.0 mi North 23.0 mph 28.8 mph N/A   Clear
9:54 PM 12.9 °F -4.4 °F 5.0 °F 71% 30.30 in 10.0 mi North 18.4 mph - N/A   Clear
10:54 PM 12.9 °F -4.4 °F 5.0 °F 71% 30.31 in 10.0 mi North 18.4 mph 26.5 mph N/A   Mostly Cloudy
11:54 PM 12.9 °F -3.4 °F 5.0 °F 71% 30.32 in 10.0 mi North 16.1 mph - N/A   Overcast